Flag Weather past 2 weeks in Vientiane, Laos

Now
68 °F

Fog.


Feels Like: 68 °F
Forecast: 66 / 91 °F
Wind: 2 mph from Northeast

Location: Vientiane Airport

Current Time: Nov 26, 2014 at 7:34:45 AM

Latest Report: Nov 26, 2014 at 7:00 AM


Visibility: 3 mi

Pressure: 29.86 "Hg

Humidity: 94%

Dew point: 66 °F

Location of VientianeLocation

Historic Weather in Vientiane — Graph

°F

Vientiane temperature yesterday

Maximum temperature yesterday: 90 °F (at 1:30 PM)
Minimum temperature yesterday: 66 °F (at 6:00 AM)
Average temperature yesterday: 80 °F

Past Weeks' High & Low Weather Summary

 TemperatureHumidityPressure
High91 °F (Nov 11, 1:30 PM)94% (Nov 11, 6:00 AM)30.09 "Hg (Nov 11, 6:00 AM)
Low66 °F (Nov 20, 6:00 AM)46% (Nov 18, 1:00 PM)29.74 "Hg (Nov 25, 3:30 PM)
Average80 °F69%29.93 "Hg
* Reported Nov 11 6:00 AM — Nov 26 6:30 AM, Vientiane, Weather by CustomWeather, © 2014

Note: Actual official high and low records may vary slightly from our data, if they occured in-between our weather recording intervals... More about our weather records

Advertising

Vientiane weather history for previous 24 hours

 ConditionsComfort  
Time TempWeatherWind HumidityBarometerVisibility
6:30 AM
Nov 26
70 °FFog.5 mph88%29.83 "Hg2 mi
6:00 AM70 °FFog.5 mph88%29.83 "Hg2 mi
11:00 PM
Nov 25
73 °FFog.5 mph83%29.83 "Hg2 mi
10:30 PM75 °FFog.5 mph78%29.83 "Hg2 mi
10:00 PM75 °FFog.5 mph78%29.83 "Hg2 mi
9:30 PM79 °FFog.5 mph79%29.83 "Hg2 mi
9:00 PM79 °FFog.5 mph79%29.80 "Hg2 mi
8:30 PM79 °FFog.2 mph79%29.80 "Hg2 mi
8:00 PM81 °FFog.2 mph74%29.80 "Hg2 mi
7:30 PM81 °FFog.2 mph74%29.77 "Hg3 mi
7:00 PM81 °FFog.2 mph74%29.77 "Hg3 mi
6:30 PM82 °FFog.2 mph66%29.77 "Hg2 mi
6:00 PM82 °FFog.2 mph66%29.77 "Hg3 mi
5:30 PM86 °FClear.2 mph59%29.77 "Hg4 mi
5:00 PM88 °FClear.2 mph55%29.77 "HgN/A
4:00 PM90 °FClear.2 mph52%29.77 "HgN/A
3:30 PM90 °FClear.2 mph49%29.74 "HgN/A
3:00 PM90 °FClear.2 mph49%29.77 "HgN/A
2:30 PM90 °FClear.2 mph49%29.77 "HgN/A
2:00 PM88 °FClear.2 mph52%29.80 "HgN/A
1:30 PM90 °FClear.2 mph46%29.80 "HgN/A
1:00 PM88 °FClear.2 mph49%29.83 "HgN/A
12:00 PM86 °FPassing clouds.2 mph52%29.89 "HgN/A
11:30 AM84 °FPassing clouds.2 mph58%29.89 "HgN/A
11:00 AM82 °FPassing clouds.2 mph62%29.89 "HgN/A
9:30 AM77 °FPassing clouds.2 mph69%29.92 "Hg4 mi
9:00 AM75 °FFog.2 mph74%29.92 "Hg3 mi
8:30 AM72 °FClear.2 mph78%29.89 "Hg4 mi
8:00 AM70 °FFog.2 mph83%29.89 "Hg3 mi
7:30 AM66 °FFog.2 mph94%29.86 "Hg3 mi
7:00 AM66 °FFog.2 mph94%29.86 "Hg3 mi
Weather by CustomWeather, © 2014

See weather overviewHow to use our weather pages